Location: Unspecified
(40.9447°N, 78.9903°W)
Time: 03:27:55
(UTC-04:00)

Okean 3 - Pass Details

Date: 31 July 2021
Orbit: 575 x 601 km, 82.5° (Epoch: 26 September)

Event Time Altitude Azimuth Distance (km) Brightness Sun altitude
Rises 01:21:54 0° 1° (N) 2,849 8.1 -30.9°
Reaches altitude 10° 01:24:19 10° 11° (NNE) 1,938 7.0 -30.9°
Enters shadow 01:26:41 26° 38° (NE) 1,198 5.4 -30.8°
